SCP
0 0 0 0 0 0 0 0 0 0 0 0 0 0 0 0 0 0 0 0 0 0 0 0 0 0 0 0 0 0 0 0 0 0 0 0 0 0
0 0 0 0 0 0 0 0 0 0 0 0 0 0 0 0 0 0 0 0 0 0 0 0 0 0 0 0 0 0 0 0 0 0 0 0 0 0
0 0 0 0 0 0 0 0 0 0 0 0 0 0 0 0 0 0 0 0 0 0 0 0 0 0 0 0 0 0 0 0 0 0 0 0 0 0
0 0 0 0 0 0 0 0 0 0 0 0 0 0 0 0 0 0 0 0 0 0 0 0 0 0 0 0 0 0 0 0 0 0 0 0 0 0
0 0 0 0 0 0 0 0 0 0 0 0 0 0 0 0 0 0 0 0 0 0 0 0 0 0 0 0 0 0 0 0 0 0 0 0 0 0
0 0 0 0 0 0 0 0 0 0 0 0 0 0 0 0 0 0 0 0 0 0 0 0 0 0 0 0 0 0 0 0 0 0 0 0 0 0
0 0 0 0 0 0 0 0 0 0 0 0 0 0 0 0 0 0 0 0 0 0 0 0 0 0 0 0 0 0 0 0 0 0 0 0 0 0
0 0 0 0 0 0 0 0 0 0 0 0 0 0 0 0 0 0 0 0 0 0 0 0 0 0 0 0 0 0 0 0 0 0 0 0 0 0
0 0 0 0 0 0 0 0 0 0 0 0 0 0 0 0 0 0 0 0 0 0 0 0 0 0 0 0 0 0 0 0 0 0 0 0 0 0
0 0 0 0 0 0 0 0 0 0 0 0 0 0 0 0 0 0 0 0 0 0 0 0 0 0 0 0 0 0 0 0 0 0 0 0 0 0
0 0 0 0 0 0 0 0 0 0 0 0 0 0 0 0 0 0 0 0 0 0 0 0 0 0 0 0 0 0 0 0 0 0 0 0 0 0
0 0 0 0 0 0 0 0 0 0 0 0 0 0 0 0 0 0 0 0 0 0 0 0 0 0 0 0 0 0 0 0 0 0 0 0 0 0
0 0 0 0 0 0 0 0 0 0 0 0 0 0 0 0 0 0 0 0 0 0 0 0 0 0 0 0 0 0 0 0 0 0 0 0 0 0
0 0 0 0 0 0 0 0 0 0 0 0 0 0 0 0 0 0 0 0 0 0 0 0 0 0 0 0 0 0 0 0 0 0 0 0 0 0
0 0 0 0 0 0 0 0 0 0 0 0 0 0 0 0 0 0 0 0 0 0 0 0 0 0 0 0 0 0 0 0 0 0 0 0 0 0
0 0 0 0 0 0 0 0 0 0 0 0 0 0 0 0 0 0 0 0 0 0 0 0 0 0 0 0 0 0 0 0 0 0 0 0 0 0
0 0 0 0 0 0 0 0 0 0 0 0 0 0 0 0 0 0 0 0 0 0 0 0 0 0 0 0 0 0 0 0 0 0 0 0 0 0
0 0 0 0 0 0 0 0 0 0 0 0 0 0 0 0 0 0 0 0 0 0 0 0 0 0 0 0 0 0 0 0 0 0 0 0 0 0
0 0 0 0 0 0 0 0 0 0 0 0 0 0 0 0 0 0 0 0 0 0 0 0 0 0 0 0 0 0 0 0 0 0 0 0 0 0
0 0 0 0 0 0 0 0 0 0 0 0 0 0 0 0 0 0 0 0 0 0 0 0 0 0 0 0 0 0 0 0 0 0 0 0 0 0
0 0 0 0 0 0 0 0 0 0 0 0 0 0 0 0 0 0 0 0 0 0 0 0 0 0 0 0 0 0 0 0 0 0 0 0 0 0
0 0 0 0 0 0 0 0 0 0 0 0 0 0 0 0 0 0 0 0 0 0 0 0 0 0 0 0 0 0 0 0 0 0 0 0 0 0
0 0 0 0 0 0 0 0 0 0 0 0 0 0 0 0 0 0 0 0 0 0 0 0 0 0 0 0 0 0 0 0 0 0 0 0 0 0
Wind_Speed
4 4 3 2 3 2 3 4 4 3 3 3 2 2 2 2 3 3 3 4 5 5 5 5 6 6 6 6 6 6 7 7 7 7 8 8 9 9
3 4 3 2 2 2 3 2 2 4 3 3 2 1 1 2 3 3 3 4 5 6 6 7 8 8 8 8 8 8 8 8 8 8 9 9 9 10
4 4 4 3 3 2 2 3 2 3 3 2 1 1 2 2 1 2 2 3 3 6 7 8 8 8 8 8 8 9 8 8 9 9 9 9 9 10
5 5 5 4 4 3 3 3 3 3 3 3 2 1 2 2 2 2 2 2 3 5 7 8 8 8 8 8 8 8 8 8 9 9 9 9 10 10
6 6 6 6 5 3 4 3 3 3 2 2 2 1 1 1 1 1 2 2 3 4 5 6 7 7 7 8 8 8 8 9 9 10 10 10 10 10
6 6 6 7 7 6 5 5 4 3 3 2 2 1 1 1 1 1 2 2 3 3 3 4 5 6 7 8 8 8 9 9 10 10 10 10 10 10
5 6 6 7 8 7 5 5 5 4 3 3 2 2 2 2 2 2 3 3 3 3 3 3 3 3 4 6 7 8 8 8 9 9 9 10 10 10
6 5 5 7 8 10 9 9 8 7 6 4 3 4 4 4 3 3 2 2 3 2 2 4 3 4 5 5 6 8 9 8 8 8 8 9 10 10
7 6 5 5 7 6 7 8 9 10 9 6 6 6 5 6 5 4 4 5 5 2 2 5 3 5 5 5 8 9 9 8 8 9 9 9 10 10
7 8 7 6 6 7 6 5 6 6 8 7 6 7 6 5 6 4 4 4 4 4 4 5 4 5 5 5 8 9 9 9 9 9 10 10 10 10
7 7 7 7 9 9 6 6 6 5 7 9 8 7 7 7 6 3 3 3 5 4 4 4 4 4 5 6 6 8 9 9 10 11 11 11 11 10
5 6 9 9 9 10 7 7 7 6 5 4 5 5 5 6 7 7 5 5 4 4 3 4 4 3 5 4 4 4 5 8 10 11 12 12 11 7
5 5 5 9 10 10 9 7 8 6 4 4 4 3 3 3 3 5 5 5 6 6 3 3 3 3 4 5 5 5 5 6 6 7 9 10 11 8
6 5 5 8 9 9 8 7 7 5 3 3 3 4 3 3 3 4 5 6 7 7 5 4 4 4 5 6 7 5 5 6 6 7 7 8 9 10
4 5 5 6 6 5 7 7 5 4 3 3 4 4 4 4 3 2 3 4 6 7 6 6 6 6 6 7 7 6 7 6 6 6 7 7 7 7
4 2 3 3 3 3 2 3 3 3 4 4 4 4 2 2 3 3 3 3 3 4 5 5 6 6 6 8 7 8 8 6 6 7 8 8 8 8
4 2 2 2 2 2 2 1 2 2 3 3 3 3 3 3 3 3 2 2 3 4 5 3 3 5 7 7 7 8 8 8 8 7 7 9 9 8
5 3 2 2 2 2 2 2 2 2 2 2 3 3 3 3 3 2 2 3 4 5 5 4 4 3 4 6 8 8 7 8 8 7 7 9 10 9
4 2 2 2 2 1 1 1 2 2 2 3 3 3 3 3 4 4 4 4 4 5 5 4 3 3 6 8 5 5 7 8 8 8 7 8 10 10
2 1 1 1 1 1 1 1 2 1 2 2 2 3 3 3 4 4 4 5 5 5 5 4 4 4 6 7 7 7 8 8 8 9 9 9 9 11
2 1 1 1 1 1 1 1 1 1 1 1 2 2 2 3 3 4 4 5 5 5 5 5 5 6 5 5 7 7 7 8 9 8 9 9 10 9
2 2 1 1 1 0 0 0 0 1 1 1 2 2 2 2 3 4 4 4 4 4 5 5 5 4 4 5 8 9 9 9 8 11 13 12 8 8
2 2 2 2 1 1 1 1 1 1 1 1 2 2 2 2 3 3 4 4 4 5 5 5 4 4 5 6 7 8 11 11 9 8 8 9 12 16
Wind_Direction
172 169 169 173 174 172 161 158 154 178 227 243 244 241 224 219 221 212 224 236 241 247 254 259 263 265 267 269 269 269 268 269 270 271 273 274 275 277
164 165 171 170 162 164 168 168 162 166 203 227 232 261 241 225 204 211 229 249 257 260 262 263 265 267 268 268 268 267 265 265 266 267 267 266 266 268
167 174 182 167 162 163 162 163 168 162 185 227 231 249 229 229 209 217 233 244 260 263 264 263 264 265 267 267 268 268 268 267 266 266 266 265 265 266
179 176 184 174 171 170 170 178 181 179 175 199 212 222 230 234 233 242 247 248 255 264 262 259 260 262 263 265 267 266 265 265 265 266 266 266 266 267
185 186 187 176 182 182 181 184 184 178 169 179 201 210 236 246 230 250 258 268 270 267 260 258 262 264 262 262 262 261 261 263 265 265 264 265 266 268
194 197 193 191 194 187 188 190 178 171 170 175 189 208 225 233 220 236 264 263 278 285 277 274 270 268 266 266 264 262 262 262 262 262 263 263 264 265
199 205 207 206 204 196 193 190 181 178 178 187 197 200 214 209 219 216 244 273 273 257 274 273 272 273 274 271 266 264 264 264 263 264 265 266 266 266
203 211 216 215 215 212 213 200 188 185 190 192 201 212 223 219 212 213 224 252 273 233 249 272 260 271 273 269 265 268 269 267 267 268 270 269 268 268
205 208 216 215 208 211 219 215 213 215 203 193 205 216 218 213 197 210 214 224 243 251 236 272 262 269 271 269 264 267 270 271 272 273 274 273 271 270
209 207 209 213 207 201 204 212 222 228 222 216 219 222 223 212 202 212 221 238 257 250 222 262 271 269 277 274 264 263 267 269 273 276 276 276 275 273
217 214 211 217 217 202 200 215 231 245 242 228 230 236 236 226 205 195 207 230 265 258 204 238 266 276 276 272 268 263 266 269 272 276 278 278 277 277
222 221 218 218 216 202 203 212 230 241 237 232 234 245 245 237 214 213 217 229 253 266 218 219 257 275 282 267 271 278 275 270 272 274 275 275 277 281
221 223 222 213 216 211 207 215 227 228 226 227 239 249 249 241 229 222 219 220 233 247 230 206 251 251 257 281 282 276 275 281 285 280 273 271 272 269
216 218 217 207 211 213 212 223 225 221 221 224 237 247 249 250 247 236 228 228 233 246 253 222 242 251 264 276 281 283 283 281 278 278 281 281 277 267
216 206 207 204 204 211 215 213 211 209 211 225 239 249 251 257 262 258 251 246 250 253 256 243 244 254 251 262 273 279 290 289 279 279 285 287 288 287
225 203 190 185 181 187 194 204 206 205 209 226 239 248 252 256 258 256 261 265 267 272 260 251 250 248 255 259 265 274 276 278 283 286 290 289 284 279
166 152 151 158 173 188 193 194 196 198 216 234 243 252 254 258 261 258 254 259 260 277 288 284 265 256 253 258 266 270 277 280 282 290 293 292 288 285
141 159 182 194 203 206 207 207 208 220 228 229 239 249 257 263 270 269 260 261 269 277 282 292 302 297 283 263 240 266 279 286 292 293 289 289 291 290
138 162 182 193 198 200 208 223 239 236 228 228 234 244 253 262 267 270 270 270 273 277 281 287 284 281 289 292 280 237 275 289 291 291 289 286 290 294
129 154 162 168 184 203 217 230 251 260 251 253 256 258 259 263 267 271 271 273 278 281 284 285 276 271 273 286 293 291 263 271 285 291 295 293 287 283
118 128 146 154 165 212 233 241 254 266 277 274 279 283 285 283 282 283 284 284 283 285 286 288 289 282 281 280 280 283 284 264 262 277 290 293 295 295
95 98 89 83 76 35 351 350 332 310 308 302 303 302 300 292 291 294 294 294 289 286 287 290 299 295 282 277 284 291 297 301 288 269 261 258 277 290
68 69 62 60 57 49 36 23 4 336 317 306 304 309 311 304 298 292 289 289 291 292 295 298 300 291 283 280 286 291 296 302 304 304 296 279 261 261